Year,Month,Day,Hour,Minute,Value (Times are PST for temperature in C)
2019,09,29,00,00,7.00
2019,09,29,00,01,7.00
2019,09,29,00,02,7.00
2019,09,29,00,03,7.00
2019,09,29,00,04,7.00
2019,09,29,00,05,6.90
2019,09,29,00,06,6.90
2019,09,29,00,07,6.90
2019,09,29,00,08,6.90
2019,09,29,00,09,6.90
2019,09,29,00,10,6.90
2019,09,29,00,11,6.90
2019,09,29,00,12,6.90
2019,09,29,00,13,6.90
2019,09,29,00,14,6.90
2019,09,29,00,15,6.90
2019,09,29,00,16,6.90
2019,09,29,00,17,6.90
2019,09,29,00,18,6.90
2019,09,29,00,19,6.90
2019,09,29,00,20,6.80
2019,09,29,00,21,6.80
2019,09,29,00,22,6.80
2019,09,29,00,23,6.80
2019,09,29,00,24,6.80
2019,09,29,00,25,6.80
2019,09,29,00,26,6.80
2019,09,29,00,27,6.80
2019,09,29,00,28,6.80
2019,09,29,00,29,6.80
2019,09,29,00,30,6.80
2019,09,29,00,31,6.80
2019,09,29,00,32,6.80
2019,09,29,00,33,6.80
2019,09,29,00,34,6.80
2019,09,29,00,35,6.80
2019,09,29,00,36,6.80
2019,09,29,00,37,6.80
2019,09,29,00,38,6.80
2019,09,29,00,39,6.80
2019,09,29,00,40,6.80
2019,09,29,00,41,6.80
2019,09,29,00,42,6.80
2019,09,29,00,43,6.80
2019,09,29,00,44,6.80
2019,09,29,00,45,6.90
2019,09,29,00,46,6.90
2019,09,29,00,47,6.90
2019,09,29,00,48,6.90
2019,09,29,00,49,6.90
2019,09,29,00,50,6.90
2019,09,29,00,51,6.90
2019,09,29,00,52,6.90
2019,09,29,00,53,6.90
2019,09,29,00,54,6.90
2019,09,29,00,55,6.90
2019,09,29,00,56,6.90
2019,09,29,00,57,6.90
2019,09,29,00,58,6.90
2019,09,29,00,59,6.90
2019,09,29,01,00,6.90
2019,09,29,01,01,6.90
2019,09,29,01,02,6.90
2019,09,29,01,03,6.90
2019,09,29,01,04,6.90
2019,09,29,01,05,6.80
2019,09,29,01,06,6.80
2019,09,29,01,07,6.80
2019,09,29,01,08,6.80
2019,09,29,01,09,6.80
2019,09,29,01,10,6.80
2019,09,29,01,11,6.80
2019,09,29,01,12,6.80
2019,09,29,01,13,6.80
2019,09,29,01,14,6.70
2019,09,29,01,15,6.70
2019,09,29,01,16,6.70
2019,09,29,01,17,6.70
2019,09,29,01,18,6.70
2019,09,29,01,19,6.70
2019,09,29,01,20,6.60
2019,09,29,01,21,6.60
2019,09,29,01,22,6.60
2019,09,29,01,23,6.60
2019,09,29,01,24,6.60
2019,09,29,01,25,6.60
2019,09,29,01,26,6.60
2019,09,29,01,27,6.50
2019,09,29,01,28,6.50
2019,09,29,01,29,6.50
2019,09,29,01,30,6.50
2019,09,29,01,31,6.40
2019,09,29,01,32,6.40
2019,09,29,01,33,6.40
2019,09,29,01,34,6.40
2019,09,29,01,35,6.40
2019,09,29,01,36,6.30
2019,09,29,01,37,6.30
2019,09,29,01,38,6.30
2019,09,29,01,39,6.30
2019,09,29,01,40,6.30
2019,09,29,01,41,6.30
2019,09,29,01,42,6.20
2019,09,29,01,43,6.20
2019,09,29,01,44,6.20
2019,09,29,01,45,6.20
2019,09,29,01,46,6.20
2019,09,29,01,47,6.20
2019,09,29,01,48,6.20
2019,09,29,01,49,6.20
2019,09,29,01,50,6.20
2019,09,29,01,51,6.20
2019,09,29,01,52,6.20
2019,09,29,01,53,6.20
2019,09,29,01,54,6.20
2019,09,29,01,55,6.20
2019,09,29,01,56,6.20
2019,09,29,01,57,6.20
2019,09,29,01,58,6.20
2019,09,29,01,59,6.20
2019,09,29,02,00,6.20
2019,09,29,02,01,6.20
2019,09,29,02,02,6.20
2019,09,29,02,03,6.20
2019,09,29,02,04,6.20
2019,09,29,02,05,6.20
2019,09,29,02,06,6.20
2019,09,29,02,07,6.20
2019,09,29,02,08,6.20
2019,09,29,02,09,6.20
2019,09,29,02,10,6.20
2019,09,29,02,11,6.20
2019,09,29,02,12,6.20
2019,09,29,02,13,6.20
2019,09,29,02,14,6.20
2019,09,29,02,15,6.20
2019,09,29,02,16,6.20
2019,09,29,02,17,6.20
2019,09,29,02,18,6.20
2019,09,29,02,19,6.20
2019,09,29,02,20,6.20
2019,09,29,02,21,6.30
2019,09,29,02,22,6.30
2019,09,29,02,23,6.30
2019,09,29,02,24,6.30
2019,09,29,02,25,6.30
2019,09,29,02,26,6.30
2019,09,29,02,27,6.30
2019,09,29,02,28,6.30
2019,09,29,02,29,6.40
2019,09,29,02,30,6.40
2019,09,29,02,31,6.40
2019,09,29,02,32,6.50
2019,09,29,02,33,6.50
2019,09,29,02,34,6.50
2019,09,29,02,35,6.60
2019,09,29,02,36,6.60
2019,09,29,02,37,6.60
2019,09,29,02,38,6.60
2019,09,29,02,39,6.70
2019,09,29,02,40,6.70
2019,09,29,02,41,6.70
2019,09,29,02,42,6.70
2019,09,29,02,43,6.70
2019,09,29,02,44,6.70
2019,09,29,02,45,6.70
2019,09,29,02,46,6.70
2019,09,29,02,47,6.70
2019,09,29,02,48,6.70
2019,09,29,02,49,6.70
2019,09,29,02,50,6.70
2019,09,29,02,51,6.70
2019,09,29,02,52,6.70
2019,09,29,02,53,6.70
2019,09,29,02,54,6.70
2019,09,29,02,55,6.70
2019,09,29,02,56,6.70
2019,09,29,02,57,6.70
2019,09,29,02,58,6.70
2019,09,29,02,59,6.70
2019,09,29,03,00,6.70
2019,09,29,03,01,6.70
2019,09,29,03,02,6.70
2019,09,29,03,03,6.70
2019,09,29,03,04,6.70
2019,09,29,03,05,6.70
2019,09,29,03,06,6.70
2019,09,29,03,07,6.70
2019,09,29,03,08,6.70
2019,09,29,03,09,6.70
2019,09,29,03,10,6.70
2019,09,29,03,11,6.70
2019,09,29,03,12,6.70
2019,09,29,03,13,6.70
2019,09,29,03,14,6.70
2019,09,29,03,15,6.70
2019,09,29,03,16,6.70
2019,09,29,03,17,6.70
2019,09,29,03,18,6.70
2019,09,29,03,19,6.70
2019,09,29,03,20,6.70
2019,09,29,03,21,6.70
2019,09,29,03,22,6.70
2019,09,29,03,23,6.70
2019,09,29,03,24,6.70
2019,09,29,03,25,6.80
2019,09,29,03,26,6.70
2019,09,29,03,27,6.70
2019,09,29,03,28,6.80
2019,09,29,03,29,6.80
2019,09,29,03,30,6.80
2019,09,29,03,31,6.80
2019,09,29,03,32,6.80
2019,09,29,03,33,6.80
2019,09,29,03,34,6.80
2019,09,29,03,35,6.80
2019,09,29,03,36,6.80
2019,09,29,03,37,6.80
2019,09,29,03,38,6.80
2019,09,29,03,39,6.80
2019,09,29,03,40,6.80
2019,09,29,03,41,6.80
2019,09,29,03,42,6.80
2019,09,29,03,43,6.80
2019,09,29,03,44,6.80
2019,09,29,03,45,6.80
2019,09,29,03,46,6.80
2019,09,29,03,47,6.80
2019,09,29,03,48,6.80
2019,09,29,03,49,6.80
2019,09,29,03,50,6.90
2019,09,29,03,51,6.90
2019,09,29,03,52,6.90
2019,09,29,03,53,6.90
2019,09,29,03,54,6.90
2019,09,29,03,55,6.90
2019,09,29,03,56,6.90
2019,09,29,03,57,6.90
2019,09,29,03,58,7.00
2019,09,29,03,59,7.00
2019,09,29,04,00,7.00
2019,09,29,04,01,7.00
2019,09,29,04,02,7.00
2019,09,29,04,03,7.00
2019,09,29,04,04,7.10
2019,09,29,04,05,7.10
2019,09,29,04,06,7.10
2019,09,29,04,07,7.10
2019,09,29,04,08,7.10
2019,09,29,04,09,7.10
2019,09,29,04,10,7.10
2019,09,29,04,11,7.10
2019,09,29,04,12,7.10
2019,09,29,04,13,7.10
2019,09,29,04,14,7.10
2019,09,29,04,15,7.10
2019,09,29,04,16,7.10
2019,09,29,04,17,7.10
2019,09,29,04,18,7.10
2019,09,29,04,19,7.20
2019,09,29,04,20,7.20
2019,09,29,04,21,7.20
2019,09,29,04,22,7.20
2019,09,29,04,23,7.20
2019,09,29,04,24,7.20
2019,09,29,04,25,7.20
2019,09,29,04,26,7.20
2019,09,29,04,27,7.20
2019,09,29,04,28,7.20
2019,09,29,04,29,7.20
2019,09,29,04,30,7.20
2019,09,29,04,31,7.20
2019,09,29,04,32,7.20
2019,09,29,04,33,7.20
2019,09,29,04,34,7.20
2019,09,29,04,35,7.20
2019,09,29,04,36,7.20
2019,09,29,04,37,7.20
2019,09,29,04,38,7.20
2019,09,29,04,39,7.20
2019,09,29,04,40,7.20
2019,09,29,04,41,7.20
2019,09,29,04,42,7.20
2019,09,29,04,43,7.20
2019,09,29,04,44,7.20
2019,09,29,04,45,7.20
2019,09,29,04,46,7.20
2019,09,29,04,47,7.20
2019,09,29,04,48,7.20
2019,09,29,04,49,7.20
2019,09,29,04,50,7.20
2019,09,29,04,51,7.20
2019,09,29,04,52,7.20
2019,09,29,04,53,7.20
2019,09,29,04,54,7.30
2019,09,29,04,55,7.20
2019,09,29,04,56,7.30
2019,09,29,04,57,7.30
2019,09,29,04,58,7.30
2019,09,29,04,59,7.30
2019,09,29,05,00,7.30
2019,09,29,05,01,7.30
2019,09,29,05,02,7.30
2019,09,29,05,03,7.30
2019,09,29,05,04,7.30
2019,09,29,05,05,7.30
2019,09,29,05,06,7.30
2019,09,29,05,07,7.30
2019,09,29,05,08,7.30
2019,09,29,05,09,7.30
2019,09,29,05,10,7.30
2019,09,29,05,11,7.30
2019,09,29,05,12,7.30
2019,09,29,05,13,7.30
2019,09,29,05,14,7.30
2019,09,29,05,15,7.40
2019,09,29,05,16,7.40
2019,09,29,05,17,7.40
2019,09,29,05,18,7.40
2019,09,29,05,19,7.40
2019,09,29,05,20,7.40
2019,09,29,05,21,7.40
2019,09,29,05,22,7.40
2019,09,29,05,23,7.40
2019,09,29,05,24,7.50
2019,09,29,05,25,7.50
2019,09,29,05,26,7.50
2019,09,29,05,27,7.50
2019,09,29,05,28,7.50
2019,09,29,05,29,7.50
2019,09,29,05,30,7.50
2019,09,29,05,31,7.60
2019,09,29,05,32,7.60
2019,09,29,05,33,7.60
2019,09,29,05,34,7.60
2019,09,29,05,35,7.60
2019,09,29,05,36,7.60
2019,09,29,05,37,7.60
2019,09,29,05,38,7.60
2019,09,29,05,39,7.60
2019,09,29,05,40,7.60
2019,09,29,05,41,7.60
2019,09,29,05,42,7.60
2019,09,29,05,43,7.60
2019,09,29,05,44,7.60
2019,09,29,05,45,7.60
2019,09,29,05,46,7.60
2019,09,29,05,47,7.60
2019,09,29,05,48,7.60
2019,09,29,05,49,7.60
2019,09,29,05,50,7.70
2019,09,29,05,51,7.70
2019,09,29,05,52,7.70
2019,09,29,05,53,7.70
2019,09,29,05,54,7.70
2019,09,29,05,55,7.70
2019,09,29,05,56,7.70
2019,09,29,05,57,7.70
2019,09,29,05,58,7.70
2019,09,29,05,59,7.70
2019,09,29,06,00,7.70
2019,09,29,06,01,7.70
2019,09,29,06,02,7.80
2019,09,29,06,03,7.80
2019,09,29,06,04,7.80
2019,09,29,06,05,7.80
2019,09,29,06,06,7.80
2019,09,29,06,07,7.80
2019,09,29,06,08,7.80
2019,09,29,06,09,7.80
2019,09,29,06,10,7.80
2019,09,29,06,11,7.80
2019,09,29,06,12,7.80
2019,09,29,06,13,7.80
2019,09,29,06,14,7.80
2019,09,29,06,15,7.80
2019,09,29,06,16,7.80
2019,09,29,06,17,7.80
2019,09,29,06,18,7.80
2019,09,29,06,19,7.90
2019,09,29,06,20,7.90
2019,09,29,06,21,7.90
2019,09,29,06,22,7.90
2019,09,29,06,23,7.90
2019,09,29,06,24,8.00
2019,09,29,06,25,8.00
2019,09,29,06,26,8.00
2019,09,29,06,27,8.10
2019,09,29,06,28,8.10
2019,09,29,06,29,8.10
2019,09,29,06,30,8.20
2019,09,29,06,31,8.20
2019,09,29,06,32,8.20
2019,09,29,06,33,8.20
2019,09,29,06,34,8.20
2019,09,29,06,35,8.30
2019,09,29,06,36,8.30
2019,09,29,06,37,8.30
2019,09,29,06,38,8.30
2019,09,29,06,39,8.30
2019,09,29,06,40,8.30
2019,09,29,06,41,8.30
2019,09,29,06,42,8.40
2019,09,29,06,43,8.40
2019,09,29,06,44,8.40
2019,09,29,06,45,8.40
2019,09,29,06,46,8.40
2019,09,29,06,47,8.40
2019,09,29,06,48,8.40
2019,09,29,06,49,8.40
2019,09,29,06,50,8.40
2019,09,29,06,51,8.40
2019,09,29,06,52,8.40
2019,09,29,06,53,8.40
2019,09,29,06,54,8.50
2019,09,29,06,55,8.50
2019,09,29,06,56,8.50
2019,09,29,06,57,8.50
2019,09,29,06,58,8.50
2019,09,29,06,59,8.50
2019,09,29,07,00,8.50
2019,09,29,07,01,8.50
2019,09,29,07,02,8.50
2019,09,29,07,03,8.50
2019,09,29,07,04,8.50
2019,09,29,07,05,8.50
2019,09,29,07,06,8.50
2019,09,29,07,07,8.50
2019,09,29,07,08,8.50
2019,09,29,07,09,8.50
2019,09,29,07,10,8.50
2019,09,29,07,11,8.50
2019,09,29,07,12,8.40
2019,09,29,07,13,8.40
2019,09,29,07,14,8.40
2019,09,29,07,15,8.40
2019,09,29,07,16,8.40
2019,09,29,07,17,8.40
2019,09,29,07,18,8.40
2019,09,29,07,19,8.40
2019,09,29,07,20,8.30
2019,09,29,07,21,8.30
2019,09,29,07,22,8.30
2019,09,29,07,23,8.30
2019,09,29,07,24,8.30
2019,09,29,07,25,8.30
2019,09,29,07,26,8.30
2019,09,29,07,27,8.30
2019,09,29,07,28,8.30
2019,09,29,07,29,8.30
2019,09,29,07,30,8.30
2019,09,29,07,31,8.30
2019,09,29,07,32,8.30
2019,09,29,07,33,8.20
2019,09,29,07,34,8.20
2019,09,29,07,35,8.20
2019,09,29,07,36,8.20
2019,09,29,07,37,8.20
2019,09,29,07,38,8.20
2019,09,29,07,39,8.20
2019,09,29,07,40,8.20
2019,09,29,07,41,8.20
2019,09,29,07,42,8.10
2019,09,29,07,43,8.10
2019,09,29,07,44,8.10
2019,09,29,07,45,8.10
2019,09,29,07,46,8.10
2019,09,29,07,47,8.10
2019,09,29,07,48,8.10
2019,09,29,07,49,8.10
2019,09,29,07,50,8.10
2019,09,29,07,51,8.00
2019,09,29,07,52,8.00
2019,09,29,07,53,8.00
2019,09,29,07,54,8.10
2019,09,29,07,55,8.00
2019,09,29,07,56,8.00
2019,09,29,07,57,8.00
2019,09,29,07,58,8.00
2019,09,29,07,59,8.00
2019,09,29,08,00,8.00
2019,09,29,08,01,8.00
2019,09,29,08,02,8.00
2019,09,29,08,03,8.00
2019,09,29,08,04,8.10
2019,09,29,08,05,8.10
2019,09,29,08,06,8.10
2019,09,29,08,07,8.10
2019,09,29,08,08,8.10
2019,09,29,08,09,8.10
2019,09,29,08,10,8.10
2019,09,29,08,11,8.10
2019,09,29,08,12,8.20
2019,09,29,08,13,8.20
2019,09,29,08,14,8.20
2019,09,29,08,15,8.30
2019,09,29,08,16,8.30
2019,09,29,08,17,8.40
2019,09,29,08,18,8.40
2019,09,29,08,19,8.40
2019,09,29,08,20,8.50
2019,09,29,08,21,8.50
2019,09,29,08,22,8.60
2019,09,29,08,23,8.60
2019,09,29,08,24,8.70
2019,09,29,08,25,8.80
2019,09,29,08,26,8.80
2019,09,29,08,27,8.90
2019,09,29,08,28,8.90
2019,09,29,08,29,9.00
2019,09,29,08,30,9.10
2019,09,29,08,31,9.10
2019,09,29,08,32,9.20
2019,09,29,08,33,9.20
2019,09,29,08,34,9.30
2019,09,29,08,35,9.30
2019,09,29,08,36,9.40
2019,09,29,08,37,9.40
2019,09,29,08,38,9.50
2019,09,29,08,39,9.60
2019,09,29,08,40,9.60
2019,09,29,08,41,9.70
2019,09,29,08,42,9.70
2019,09,29,08,43,9.80
2019,09,29,08,44,9.80
2019,09,29,08,45,9.90
2019,09,29,08,46,10.00
2019,09,29,08,47,10.00
2019,09,29,08,48,10.10
2019,09,29,08,49,10.10
2019,09,29,08,50,10.10
2019,09,29,08,51,10.20
2019,09,29,08,52,10.30
2019,09,29,08,53,10.30
2019,09,29,08,54,10.30
2019,09,29,08,55,10.40
2019,09,29,08,56,10.40
2019,09,29,08,57,10.50
2019,09,29,08,58,10.50
2019,09,29,08,59,10.60
2019,09,29,09,00,10.60
2019,09,29,09,01,10.70
2019,09,29,09,02,10.70
2019,09,29,09,03,10.80
2019,09,29,09,04,10.80
2019,09,29,09,05,10.80
2019,09,29,09,06,10.90
2019,09,29,09,07,10.90
2019,09,29,09,08,10.90
2019,09,29,09,09,10.90
2019,09,29,09,10,11.00
2019,09,29,09,11,11.00
2019,09,29,09,12,11.10
2019,09,29,09,13,11.10
2019,09,29,09,14,11.10
2019,09,29,09,15,11.20
2019,09,29,09,16,11.20
2019,09,29,09,17,11.20
2019,09,29,09,18,11.20
2019,09,29,09,19,11.30
2019,09,29,09,20,11.30
2019,09,29,09,21,11.30
2019,09,29,09,22,11.30
2019,09,29,09,23,11.30
2019,09,29,09,24,11.30
2019,09,29,09,25,11.30
2019,09,29,09,26,11.40
2019,09,29,09,27,11.40
2019,09,29,09,28,11.40
2019,09,29,09,29,11.40
2019,09,29,09,30,11.40
2019,09,29,09,31,11.40
2019,09,29,09,32,11.40
2019,09,29,09,33,11.40
2019,09,29,09,34,11.40
2019,09,29,09,35,11.40
2019,09,29,09,36,11.40
2019,09,29,09,37,11.40
2019,09,29,09,38,11.40
2019,09,29,09,39,11.40
2019,09,29,09,40,11.40
2019,09,29,09,41,11.40
2019,09,29,09,42,11.40
2019,09,29,09,43,11.40
2019,09,29,09,44,11.40
2019,09,29,09,45,11.50
2019,09,29,09,46,11.50
2019,09,29,09,47,11.50
2019,09,29,09,48,11.50
2019,09,29,09,49,11.60
2019,09,29,09,50,11.60
2019,09,29,09,51,11.60
2019,09,29,09,52,11.60
2019,09,29,09,53,11.60
2019,09,29,09,54,11.60
2019,09,29,09,55,11.60
2019,09,29,09,56,11.60
2019,09,29,09,57,11.70
2019,09,29,09,58,11.70
2019,09,29,09,59,11.70
2019,09,29,10,00,11.70
2019,09,29,10,01,11.70
2019,09,29,10,02,11.70
2019,09,29,10,03,11.80
2019,09,29,10,04,11.80
2019,09,29,10,05,11.80
2019,09,29,10,06,11.80
2019,09,29,10,07,11.80
2019,09,29,10,08,11.80
2019,09,29,10,09,11.90
2019,09,29,10,10,11.90
2019,09,29,10,11,11.90
2019,09,29,10,12,11.90
2019,09,29,10,13,11.90
2019,09,29,10,14,11.90
2019,09,29,10,15,11.90
2019,09,29,10,16,11.90
2019,09,29,10,17,11.90
2019,09,29,10,18,12.00
2019,09,29,10,19,12.00
2019,09,29,10,20,12.00
2019,09,29,10,21,12.00
2019,09,29,10,22,12.10
2019,09,29,10,23,12.10
2019,09,29,10,24,12.10
2019,09,29,10,25,12.10
2019,09,29,10,26,12.10
2019,09,29,10,27,12.10
2019,09,29,10,28,12.20
2019,09,29,10,29,12.20
2019,09,29,10,30,12.20
2019,09,29,10,31,12.20
2019,09,29,10,32,12.20
2019,09,29,10,33,12.30
2019,09,29,10,34,12.30
2019,09,29,10,35,12.30
2019,09,29,10,36,12.30
2019,09,29,10,37,12.40
2019,09,29,10,38,12.40
2019,09,29,10,39,12.40
2019,09,29,10,40,12.50
2019,09,29,10,41,12.50
2019,09,29,10,42,12.60
2019,09,29,10,43,12.60
2019,09,29,10,44,12.70
2019,09,29,10,45,12.70
2019,09,29,10,46,12.80
2019,09,29,10,47,12.80
2019,09,29,10,48,12.90
2019,09,29,10,49,12.90
2019,09,29,10,50,13.00
2019,09,29,10,51,13.10
2019,09,29,10,52,13.10
2019,09,29,10,53,13.20
2019,09,29,10,54,13.20
2019,09,29,10,55,13.30
2019,09,29,10,56,13.30
2019,09,29,10,57,13.40
2019,09,29,10,58,13.40
2019,09,29,10,59,13.40
2019,09,29,11,00,13.40
2019,09,29,11,01,13.40
2019,09,29,11,02,13.50
2019,09,29,11,03,13.50
2019,09,29,11,04,13.60
2019,09,29,11,05,13.60
2019,09,29,11,06,13.60
2019,09,29,11,07,13.70
2019,09,29,11,08,13.70
2019,09,29,11,09,13.70
2019,09,29,11,10,13.80
2019,09,29,11,11,13.80
2019,09,29,11,12,13.80
2019,09,29,11,13,13.90
2019,09,29,11,14,13.90
2019,09,29,11,15,13.90
2019,09,29,11,16,13.90
2019,09,29,11,17,14.00
2019,09,29,11,18,14.10
2019,09,29,11,19,14.10
2019,09,29,11,20,14.10
2019,09,29,11,21,14.10
2019,09,29,11,22,14.20
2019,09,29,11,23,14.20
2019,09,29,11,24,14.30
2019,09,29,11,25,14.30
2019,09,29,11,26,14.40
2019,09,29,11,27,14.40
2019,09,29,11,28,14.50
2019,09,29,11,29,14.50
2019,09,29,11,30,14.50
2019,09,29,11,31,14.50
2019,09,29,11,32,14.50
2019,09,29,11,33,14.50
2019,09,29,11,34,14.40
2019,09,29,11,35,14.40
2019,09,29,11,36,14.40
2019,09,29,11,37,14.40
2019,09,29,11,38,14.40
2019,09,29,11,39,14.40
2019,09,29,11,40,14.40
2019,09,29,11,41,14.40
2019,09,29,11,42,14.40
2019,09,29,11,43,14.40
2019,09,29,11,44,14.40
2019,09,29,11,45,14.40
2019,09,29,11,46,14.50
2019,09,29,11,47,14.50
2019,09,29,11,48,14.60
2019,09,29,11,49,14.60
2019,09,29,11,50,14.70
2019,09,29,11,51,14.80
2019,09,29,11,52,14.80
2019,09,29,11,53,14.90
2019,09,29,11,54,14.90
2019,09,29,11,55,15.00
2019,09,29,11,56,15.00
2019,09,29,11,57,15.10
2019,09,29,11,58,15.10
2019,09,29,11,59,15.10
2019,09,29,12,00,15.10
2019,09,29,12,01,15.10
2019,09,29,12,02,15.10
2019,09,29,12,03,15.20
2019,09,29,12,04,15.20
2019,09,29,12,05,15.20
2019,09,29,12,06,15.10
2019,09,29,12,07,15.10
2019,09,29,12,08,15.10
2019,09,29,12,09,15.10
2019,09,29,12,10,15.10
2019,09,29,12,11,15.10
2019,09,29,12,12,15.00
2019,09,29,12,13,15.00
2019,09,29,12,14,14.90
2019,09,29,12,15,14.80
2019,09,29,12,16,14.80
2019,09,29,12,17,14.80
2019,09,29,12,18,14.70
2019,09,29,12,19,14.80
2019,09,29,12,20,14.80
2019,09,29,12,21,14.80
2019,09,29,12,22,14.80
2019,09,29,12,23,14.80
2019,09,29,12,24,14.80
2019,09,29,12,25,14.80
2019,09,29,12,26,14.90
2019,09,29,12,27,14.90
2019,09,29,12,28,14.90
2019,09,29,12,29,14.90
2019,09,29,12,30,14.90
2019,09,29,12,31,14.80
2019,09,29,12,32,14.70
2019,09,29,12,33,14.70
2019,09,29,12,34,14.70
2019,09,29,12,35,14.60
2019,09,29,12,36,14.60
2019,09,29,12,37,14.60
2019,09,29,12,38,14.60
2019,09,29,12,39,14.60
2019,09,29,12,40,14.60
2019,09,29,12,41,14.60
2019,09,29,12,42,14.60
2019,09,29,12,43,14.60
2019,09,29,12,44,14.60
2019,09,29,12,45,14.60
2019,09,29,12,46,14.60
2019,09,29,12,47,14.50
2019,09,29,12,48,14.50
2019,09,29,12,49,14.50
2019,09,29,12,50,14.60
2019,09,29,12,51,14.60
2019,09,29,12,52,14.60
2019,09,29,12,53,14.60
2019,09,29,12,54,14.60
2019,09,29,12,55,14.60
2019,09,29,12,56,14.60
2019,09,29,12,57,14.60
2019,09,29,12,58,14.50
2019,09,29,12,59,14.50
2019,09,29,13,00,14.40
2019,09,29,13,01,14.40
2019,09,29,13,02,14.40
2019,09,29,13,03,14.40
2019,09,29,13,04,14.40
2019,09,29,13,05,14.40
2019,09,29,13,06,14.40
2019,09,29,13,07,14.50
2019,09,29,13,08,14.50
2019,09,29,13,09,14.50
2019,09,29,13,10,14.60
2019,09,29,13,11,14.70
2019,09,29,13,12,14.80
2019,09,29,13,13,14.80
2019,09,29,13,14,14.80
2019,09,29,13,15,14.90
2019,09,29,13,16,14.90
2019,09,29,13,17,14.80
2019,09,29,13,18,14.80
2019,09,29,13,19,14.80
2019,09,29,13,20,14.80
2019,09,29,13,21,14.80
2019,09,29,13,22,14.80
2019,09,29,13,23,14.80
2019,09,29,13,24,14.80
2019,09,29,13,25,14.80
2019,09,29,13,26,14.90
2019,09,29,13,27,14.90
2019,09,29,13,28,15.00
2019,09,29,13,29,15.10
2019,09,29,13,30,15.10
2019,09,29,13,31,15.20
2019,09,29,13,32,15.10
2019,09,29,13,33,15.10
2019,09,29,13,34,15.10
2019,09,29,13,35,15.10
2019,09,29,13,36,15.00
2019,09,29,13,37,15.00
2019,09,29,13,38,14.90
2019,09,29,13,39,14.90
2019,09,29,13,40,15.00
2019,09,29,13,41,15.00
2019,09,29,13,42,15.10
2019,09,29,13,43,15.10
2019,09,29,13,44,15.10
2019,09,29,13,45,15.20
2019,09,29,13,46,15.10
2019,09,29,13,47,15.10
2019,09,29,13,48,15.00
2019,09,29,13,49,14.90
2019,09,29,13,50,14.80
2019,09,29,13,51,14.80
2019,09,29,13,52,14.80
2019,09,29,13,53,14.80
2019,09,29,13,54,14.80
2019,09,29,13,55,14.90
2019,09,29,13,56,14.90
2019,09,29,13,57,14.90
2019,09,29,13,58,15.00
2019,09,29,13,59,15.00
2019,09,29,14,00,15.00
2019,09,29,14,01,15.00
2019,09,29,14,02,15.00
2019,09,29,14,03,15.00
2019,09,29,14,04,15.00
2019,09,29,14,05,15.10
2019,09,29,14,06,15.10
2019,09,29,14,07,15.10
2019,09,29,14,08,15.10
2019,09,29,14,09,15.20
2019,09,29,14,10,15.20
2019,09,29,14,11,15.30
2019,09,29,14,12,15.40
2019,09,29,14,13,15.50
2019,09,29,14,14,15.60
2019,09,29,14,15,15.70
2019,09,29,14,16,15.80
2019,09,29,14,17,15.80
2019,09,29,14,18,15.80
2019,09,29,14,19,15.90
2019,09,29,14,20,15.90
2019,09,29,14,21,15.80
2019,09,29,14,22,15.80
2019,09,29,14,23,15.80
2019,09,29,14,24,15.70
2019,09,29,14,25,15.70
2019,09,29,14,26,15.80
2019,09,29,14,27,15.80
2019,09,29,14,28,15.70
2019,09,29,14,29,15.60
2019,09,29,14,30,15.50
2019,09,29,14,31,15.50
2019,09,29,14,32,15.50
2019,09,29,14,33,15.50
2019,09,29,14,34,15.50
2019,09,29,14,35,15.50
2019,09,29,14,36,15.50
2019,09,29,14,37,15.40
2019,09,29,14,38,15.40
2019,09,29,14,39,15.40
2019,09,29,14,40,15.40
2019,09,29,14,41,15.30
2019,09,29,14,42,15.30
2019,09,29,14,43,15.30
2019,09,29,14,44,15.30
2019,09,29,14,45,15.30
2019,09,29,14,46,15.40
2019,09,29,14,47,15.50
2019,09,29,14,48,15.50
2019,09,29,14,49,15.50
2019,09,29,14,50,15.60
2019,09,29,14,51,15.60
2019,09,29,14,52,15.60
2019,09,29,14,53,15.60
2019,09,29,14,54,15.70
2019,09,29,14,55,15.70
2019,09,29,14,56,15.70
2019,09,29,14,57,15.70
2019,09,29,14,58,15.70
2019,09,29,14,59,15.70
2019,09,29,15,00,15.70
2019,09,29,15,01,15.70
2019,09,29,15,02,15.70
2019,09,29,15,03,15.60
2019,09,29,15,04,15.60
2019,09,29,15,05,15.50
2019,09,29,15,06,15.50
2019,09,29,15,07,15.40
2019,09,29,15,08,15.40
2019,09,29,15,09,15.40
2019,09,29,15,10,15.50
2019,09,29,15,11,15.50
2019,09,29,15,12,15.60
2019,09,29,15,13,15.60
2019,09,29,15,14,15.70
2019,09,29,15,15,15.70
2019,09,29,15,16,15.70
2019,09,29,15,17,15.70
2019,09,29,15,18,15.70
2019,09,29,15,19,15.70
2019,09,29,15,20,15.70
2019,09,29,15,21,15.70
2019,09,29,15,22,15.70
2019,09,29,15,23,15.80
2019,09,29,15,24,15.80
2019,09,29,15,25,15.90
2019,09,29,15,26,16.00
2019,09,29,15,27,16.10
2019,09,29,15,28,16.10
2019,09,29,15,29,16.10
2019,09,29,15,30,16.10
2019,09,29,15,31,16.10
2019,09,29,15,32,16.10
2019,09,29,15,33,16.10
2019,09,29,15,34,16.20
2019,09,29,15,35,16.20
2019,09,29,15,36,16.20
2019,09,29,15,37,16.20
2019,09,29,15,38,16.10
2019,09,29,15,39,16.10
2019,09,29,15,40,16.10
2019,09,29,15,41,16.00
2019,09,29,15,42,16.10
2019,09,29,15,43,16.10
2019,09,29,15,44,16.10
2019,09,29,15,45,16.00
2019,09,29,15,46,16.00
2019,09,29,15,47,15.90
2019,09,29,15,48,15.80
2019,09,29,15,49,15.70
2019,09,29,15,50,15.60
2019,09,29,15,51,15.60
2019,09,29,15,52,15.50
2019,09,29,15,53,15.50
2019,09,29,15,54,15.50
2019,09,29,15,55,15.50
2019,09,29,15,56,15.50
2019,09,29,15,57,15.50
2019,09,29,15,58,15.60
2019,09,29,15,59,15.60
2019,09,29,16,00,15.60
2019,09,29,16,01,15.60
2019,09,29,16,02,15.60
2019,09,29,16,03,15.60
2019,09,29,16,04,15.60
2019,09,29,16,05,15.50
2019,09,29,16,06,15.50
2019,09,29,16,07,15.50
2019,09,29,16,08,15.60
2019,09,29,16,09,15.60
2019,09,29,16,10,15.60
2019,09,29,16,11,15.60
2019,09,29,16,12,15.60
2019,09,29,16,13,15.60
2019,09,29,16,14,15.60
2019,09,29,16,15,15.70
2019,09,29,16,16,15.70
2019,09,29,16,17,15.60
2019,09,29,16,18,15.60
2019,09,29,16,19,15.50
2019,09,29,16,20,15.40
2019,09,29,16,21,15.40
2019,09,29,16,22,15.30
2019,09,29,16,23,15.30
2019,09,29,16,24,15.30
2019,09,29,16,25,15.20
2019,09,29,16,26,15.20
2019,09,29,16,27,15.20
2019,09,29,16,28,15.10
2019,09,29,16,29,15.10
2019,09,29,16,30,15.20
2019,09,29,16,31,15.20
2019,09,29,16,32,15.20
2019,09,29,16,33,15.20
2019,09,29,16,34,15.20
2019,09,29,16,35,15.20
2019,09,29,16,36,15.10
2019,09,29,16,37,15.10
2019,09,29,16,38,15.10
2019,09,29,16,39,15.10
2019,09,29,16,40,15.10
2019,09,29,16,41,15.10
2019,09,29,16,42,15.10
2019,09,29,16,43,15.10
2019,09,29,16,44,15.10
2019,09,29,16,45,15.10
2019,09,29,16,46,15.10
2019,09,29,16,47,15.10
2019,09,29,16,48,15.00
2019,09,29,16,49,15.00
2019,09,29,16,50,15.00
2019,09,29,16,51,15.00
2019,09,29,16,52,15.00
2019,09,29,16,53,15.00
2019,09,29,16,54,15.00
2019,09,29,16,55,15.00
2019,09,29,16,56,15.00
2019,09,29,16,57,15.00
2019,09,29,16,58,15.00
2019,09,29,16,59,15.00
2019,09,29,17,00,15.00
2019,09,29,17,01,15.10
2019,09,29,17,02,15.10
2019,09,29,17,03,15.10
2019,09,29,17,04,15.10
2019,09,29,17,05,15.10
2019,09,29,17,06,15.10
2019,09,29,17,07,15.10
2019,09,29,17,08,15.10
2019,09,29,17,09,15.00
2019,09,29,17,10,15.00
2019,09,29,17,11,15.00
2019,09,29,17,12,14.90
2019,09,29,17,13,14.90
2019,09,29,17,14,14.90
2019,09,29,17,15,14.90
2019,09,29,17,16,14.90
2019,09,29,17,17,14.80
2019,09,29,17,18,14.80
2019,09,29,17,19,14.80
2019,09,29,17,20,14.80
2019,09,29,17,21,14.80
2019,09,29,17,22,14.80
2019,09,29,17,23,14.80
2019,09,29,17,24,14.80
2019,09,29,17,25,14.90
2019,09,29,17,26,14.90
2019,09,29,17,27,14.90
2019,09,29,17,28,14.90
2019,09,29,17,29,14.90
2019,09,29,17,30,14.90
2019,09,29,17,31,14.90
2019,09,29,17,32,14.90
2019,09,29,17,33,14.90
2019,09,29,17,34,14.90
2019,09,29,17,35,14.90
2019,09,29,17,36,14.80
2019,09,29,17,37,14.80
2019,09,29,17,38,14.80
2019,09,29,17,39,14.80
2019,09,29,17,40,14.80
2019,09,29,17,41,14.80
2019,09,29,17,42,14.80